Tracking 35274 objects as of 11-Sep-2026
HD Live streaming from Space Station
objects crossing your sky now

SL-7 R/B


SL-7 R/B is no longer on orbit


NORAD ID: 270
Int'l Code: 1962-009B
Launch date: April 6, 1962
Source: Commonwealth of Independent States (former USSR) (CIS)
Launch site: TYURATAM MISSILE AND SPACE COMPLEX (TTMTR)
Decay date: 1962-10-06

Note: This is a ROCKET BODY
Your satellite tracking list
Your tracking list is empty




NASA's NSSDC Master Catalog

Two Line Element Set (TLE):
1 00270U 62009  B 62276.05383240  .12155272 +00000-0 +00000-0 0  9999
2 00270 048.8888 264.9199 0157800 140.9800 314.1000 16.00161027026616
Source of the keplerian elements: AFSPC